Temperature
14 14 15 15 13 11 13 14 14 15 14 14 14 14 13 13 14 14 13 13 14 14 14 14 14 15 15 15 16 16 16 16 16 16 17 17 17 17 17 17 17 17 17 17 16 16 16 16 16
14 14 15 14 12 13 13 13 14 14 14 14 14 14 13 12 13 13 13 13 14 14 14 14 14 15 15 15 16 16 16 16 16 16 16 16 16 17 16 16 16 16 16 16 16 16 16 16 16
14 14 15 11 11 12 15 14 13 14 14 14 13 13 12 12 13 13 13 13 13 13 14 14 14 14 15 15 15 15 16 16 16 16 16 16 16 16 16 16 16 16 16 16 16 16 16 16 16
14 14 13 11 13 12 13 14 13 13 14 14 13 11 12 12 13 13 13 13 13 13 13 13 14 14 14 14 15 15 15 15 15 16 16 16 16 16 16 16 16 16 16 16 16 16 16 16 16
14 14 11 11 12 12 12 13 14 14 13 13 12 11 12 12 12 13 13 13 13 13 13 13 13 14 14 14 14 14 15 15 15 15 15 15 16 16 16 16 16 16 16 16 16 15 15 15 15
14 10 10 11 12 12 12 13 14 13 12 12 12 11 11 12 12 12 12 13 13 13 13 13 13 13 13 13 14 14 14 14 14 15 15 15 15 15 15 15 15 15 15 15 15 15 15 15 15
12 9 11 11 11 12 13 13 13 12 12 12 13 10 11 12 12 12 12 12 12 12 12 13 13 13 13 13 13 13 13 13 14 14 14 14 14 14 14 14 15 15 15 15 15 15 14 15 15
13 9 11 10 11 12 12 13 13 13 12 13 13 11 11 12 12 12 12 12 12 12 12 12 12 12 12 12 13 13 13 13 13 13 13 13 14 14 14 14 14 14 14 14 14 14 14 14 14
13 9 10 10 11 12 12 12 12 12 12 12 12 13 13 12 12 11 12 12 12 12 12 12 12 12 12 12 12 12 12 13 13 13 13 13 13 13 13 13 13 13 13 14 14 14 14 14 14
11 9 10 11 11 11 11 12 12 12 11 11 12 12 12 12 12 12 12 12 12 12 12 12 11 11 12 12 12 12 12 12 12 12 12 12 12 12 12 13 13 13 13 13 13 13 13 13 13
10 9 10 10 11 11 11 11 11 11 10 11 12 12 12 12 11 12 12 12 12 11 11 11 11 11 11 11 11 12 12 12 12 12 12 12 12 12 12 12 12 12 12 12 12 13 13 13 13
9 9 10 10 11 11 11 11 11 11 12 13 13 13 12 12 11 12 12 11 11 11 11 11 11 11 11 11 11 11 11 11 11 11 11 11 11 11 11 11 11 11 11 12 12 12 12 12 12
9 9 10 10 10 10 10 10 10 11 12 12 12 12 12 12 12 11 11 11 11 11 11 11 10 10 10 10 10 10 10 10 10 10 10 10 10 10 10 10 11 11 11 11 11 11 11 11 11
9 9 9 10 10 10 9 9 9 11 12 12 12 12 11 11 11 11 11 11 11 11 10 10 10 10 10 10 10 10 10 10 10 10 10 10 10 10 10 10 10 10 10 10 10 10 10 11 11
9 9 9 9 9 9 9 9 8 11 11 11 11 11 11 11 11 11 11 11 11 10 10 10 10 10 10 9 9 9 9 9 9 9 9 9 9 9 9 9 9 9 9 9 9 10 10 10 10
9 8 8 9 8 8 9 9 9 10 10 10 11 11 11 11 11 11 11 11 10 10 10 10 10 10 9 9 9 9 9 9 9 9 9 9 9 8 8 8 8 8 8 8 9 9 9 9 9
7 7 8 8 8 7 8 8 8 9 9 9 10 10 11 11 11 11 11 10 10 10 10 10 10 9 9 9 9 9 9 9 9 9 8 8 8 8 8 8 8 7 8 8 8 8 8 8 8
7 7 7 8 7 7 7 7 7 8 8 8 9 10 10 10 11 11 10 10 10 10 10 10 9 9 9 9 9 9 8 8 8 8 8 8 8 7 7 7 7 7 7 7 7 7 7 7 7
7 7 7 7 7 7 6 6 7 7 7 7 8 9 10 10 11 10 10 10 10 10 10 9 9 9 9 8 8 8 8 8 8 8 8 7 7 7 7 7 7 6 6 6 6 6 6 6 6
7 7 7 7 7 7 5 5 6 6 6 7 8 8 9 10 10 10 10 10 10 10 9 9 9 9 8 8 8 8 8 8 8 7 7 7 7 7 6 6 6 6 6 6 6 6 6 6 5
6 6 7 7 6 6 5 7 7 7 6 7 8 9 10 10 10 10 10 10 10 9 9 9 9 8 8 8 8 7 7 7 7 7 7 7 6 6 6 6 5 5 5 5 5 5 5 5 5
6 6 6 6 6 5 5 6 7 7 6 6 7 8 9 10 10 10 10 10 9 9 9 9 8 8 8 7 7 7 7 7 7 6 6 6 6 6 6 5 5 5 5 5 5 4 4 4 4
5 5 5 5 5 4 4 5 6 6 7 7 6 8 9 10 10 10 10 10 10 9 9 8 8 8 7 7 7 7 6 6 6 6 6 6 6 5 5 5 5 4 4 4 4 4 4 4 3
4 4 3 3 3 5 4 5 6 5 7 7 7 8 9 9 9 9 10 9 9 9 8 8 8 8 7 7 7 6 6 6 6 5 5 5 5 5 5 4 4 4 4 4 4 4 4 3 3
5 4 4 5 4 5 4 4 5 6 6 6 6 7 8 9 9 9 9 9 9 8 8 8 7 7 7 7 6 6 6 5 5 5 5 4 4 4 4 4 4 4 4 3 3 3 3 3 3
4 5 5 6 5 5 3 3 5 5 5 6 6 7 8 9 9 9 9 9 8 8 8 7 7 7 7 6 6 6 5 5 5 4 4 4 4 4 4 4 4 3 3 3 3 3 3 3 3
4 3 4 2 2 4 4 3 4 5 5 5 6 6 7 8 9 9 8 8 8 8 7 7 7 6 6 6 5 5 5 5 4 4 4 4 4 3 3 3 3 3 3 3 3 3 3 2 2
3 2 2 3 4 6 5 4 5 6 6 5 5 5 7 8 8 8 8 8 8 7 7 7 6 6 6 5 5 5 5 4 4 4 4 4 3 3 3 3 3 3 3 2 2 2 2 2 2
2 2 2 2 2 4 5 6 5 5 5 5 4 6 7 7 8 8 8 7 7 7 6 6 6 6 5 5 5 5 4 4 4 4 3 3 3 3 3 3 2 2 2 2 2 2 2 2 2
2 2 2 3 2 1 2 4 6 4 4 4 4 6 7 7 7 7 7 7 7 6 6 6 6 5 5 5 4 4 4 4 3 3 3 3 3 2 2 2 2 2 2 2 1 1 1 1 1
Wind_Speed
5 2 3 4 5 4 3 4 3 2 2 1 2 5 8 6 4 5 2 1 1 1 3 5 8 9 10 10 11 11 12 12 12 11 10 9 9 9 8 7 6 6 4 3 2 2 2 3 4
1 1 4 5 5 2 5 4 4 3 3 4 4 5 6 3 2 5 1 1 3 3 4 6 9 10 10 11 11 11 11 11 11 11 11 10 9 9 8 8 7 6 5 5 3 2 1 2 3
1 3 4 5 4 6 5 4 5 1 2 3 4 4 4 4 3 3 1 3 4 5 6 7 9 10 11 11 11 11 11 11 11 11 11 11 10 9 8 8 8 7 6 5 4 3 2 0 1
3 4 5 4 5 5 4 2 3 4 3 4 5 5 2 1 1 3 3 5 6 5 7 8 10 10 10 11 11 11 11 11 11 11 11 11 11 11 9 8 8 8 7 6 5 3 2 1 1
4 4 4 1 5 3 2 1 3 3 3 3 4 5 2 3 3 5 6 5 6 5 7 8 10 10 11 11 11 11 11 11 11 11 11 11 11 11 11 9 8 8 7 6 5 4 3 2 2
4 4 4 4 5 3 2 1 3 3 3 3 5 6 2 1 3 4 5 5 5 5 7 9 10 10 11 11 11 11 11 12 12 12 12 12 12 11 11 10 9 8 8 7 6 4 4 3 3
5 5 5 5 4 4 2 2 5 5 4 4 6 6 2 1 3 5 6 5 5 6 6 7 9 10 10 11 11 11 11 12 12 12 12 12 12 12 12 12 11 9 9 8 7 5 4 4 4
5 5 3 4 5 5 2 2 3 4 4 3 5 8 6 5 5 6 6 5 5 4 5 5 7 8 9 9 10 10 10 11 11 11 12 12 11 11 12 12 12 11 10 10 9 7 5 5 5
4 4 4 6 7 5 2 3 1 2 4 2 1 4 4 8 8 6 4 3 2 3 2 3 5 6 7 7 8 9 9 9 10 10 10 10 9 9 10 11 12 12 11 11 10 9 7 6 5
4 4 7 4 4 3 2 3 3 3 2 1 1 2 5 8 8 7 6 5 3 2 1 1 2 3 5 5 6 7 7 8 8 8 8 8 8 8 9 10 12 12 12 11 11 10 9 6 5
4 6 3 1 1 2 3 2 2 5 4 7 7 7 7 7 8 7 6 6 5 3 2 0 1 2 3 3 4 5 6 6 7 7 7 7 7 7 8 7 8 10 10 9 10 9 7 6 4
3 2 2 1 1 2 3 2 2 6 6 4 7 9 8 9 9 9 8 6 4 4 3 1 1 1 2 2 2 2 3 4 4 5 6 5 4 4 5 5 6 6 6 6 6 5 7 6 6
3 2 1 1 0 1 1 3 3 6 5 2 5 7 9 9 8 7 6 6 5 4 4 2 1 1 0 1 1 2 2 2 3 4 5 4 2 2 3 3 4 5 5 5 5 5 5 5 5
3 2 1 1 1 1 3 3 3 8 4 5 7 8 8 8 8 6 6 6 6 5 4 3 2 2 1 1 1 1 1 2 2 3 4 4 2 2 2 3 3 4 5 5 4 5 4 4 4
2 2 2 3 3 2 1 6 8 7 5 7 8 7 7 7 7 8 8 7 7 6 4 4 4 2 2 1 1 1 1 2 2 3 4 4 3 3 2 3 3 4 6 5 4 5 3 4 5
3 2 2 3 3 3 4 9 6 4 7 8 8 7 7 7 8 8 8 7 6 5 5 4 3 2 2 2 2 1 2 2 2 3 4 4 5 4 2 2 3 5 5 3 3 4 4 4 5
1 3 5 3 2 3 5 9 6 2 6 8 8 8 8 7 7 7 7 7 7 6 5 4 3 3 3 2 1 1 2 2 2 3 3 4 5 5 3 3 3 4 3 3 4 4 3 5 6
6 5 4 5 2 2 5 10 10 4 6 9 9 8 8 9 9 7 7 6 6 5 4 4 3 3 2 1 1 1 2 2 2 3 3 4 5 5 4 3 4 4 3 4 4 4 4 4 5
5 5 4 4 1 2 8 12 14 9 7 9 9 9 9 10 8 6 6 5 4 4 3 3 3 2 1 0 1 1 2 3 3 3 4 5 5 5 4 4 3 3 4 5 5 4 5 5 4
3 3 3 3 2 2 6 12 12 9 8 10 11 11 11 8 6 6 6 5 5 5 4 4 4 3 3 2 2 2 2 2 3 4 4 5 5 5 5 4 4 4 4 5 5 4 4 4 3
4 5 4 3 4 2 5 9 6 4 3 5 7 8 9 10 9 7 6 6 5 5 5 5 4 4 4 2 1 1 2 2 2 4 4 5 6 6 6 6 5 5 5 5 6 6 6 6 4
5 4 4 2 1 4 2 5 7 4 4 5 7 7 8 8 7 6 7 6 6 7 5 4 4 4 3 2 2 2 2 4 5 4 5 6 6 7 7 7 6 6 6 6 7 6 6 6 6
4 3 3 2 2 3 1 3 9 3 5 7 7 8 8 7 7 7 7 7 6 5 4 4 3 3 3 3 3 3 4 5 4 5 6 7 6 6 7 7 6 7 6 7 7 7 7 7 7
6 6 5 4 3 4 5 6 8 5 7 5 4 5 6 6 6 6 5 4 3 3 3 3 3 3 3 3 4 4 5 6 6 7 7 6 5 6 7 7 6 7 7 8 8 8 8 8 9
4 5 3 3 1 7 3 5 10 7 5 5 5 5 5 5 5 5 5 4 4 4 3 3 3 4 4 4 4 5 6 6 7 7 7 7 6 6 7 7 7 7 8 8 8 8 9 9 9
6 7 7 7 6 5 2 7 8 5 4 4 4 4 3 4 5 5 6 5 5 5 4 4 4 5 5 4 5 5 5 5 6 7 7 7 7 8 8 8 8 9 9 9 8 8 9 8 9
7 5 4 5 2 3 6 7 9 4 2 1 1 1 3 4 4 5 5 5 5 5 5 5 5 5 5 5 5 6 6 6 7 8 7 7 8 8 9 9 9 9 9 9 9 8 9 9 10
5 8 5 5 5 5 6 6 5 4 2 1 2 3 4 4 4 4 4 4 4 4 4 4 5 5 5 5 5 6 6 7 7 7 8 9 10 9 10 10 10 10 9 9 9 9 9 10 10
5 4 4 4 4 5 4 7 6 6 4 4 5 5 5 5 4 4 3 3 3 3 3 3 4 4 5 5 5 6 7 7 7 8 9 9 10 10 10 10 10 10 10 9 9 10 10 11 12
4 6 7 6 5 4 4 8 4 4 5 5 5 4 3 4 3 3 3 2 2 3 3 3 4 4 5 5 5 6 7 7 8 9 10 9 10 10 10 10 10 10 10 10 10 11 11 12 13
Wind_Direction
350 23 77 60 60 59 229 234 208 175 156 85 83 103 125 126 143 155 177 68 97 75 25 48 58 55 54 50 46 45 44 44 44 44 46 49 50 48 49 50 53 52 54 58 81 120 154 158 154
340 91 61 65 102 174 250 226 198 189 153 125 71 81 87 88 66 110 139 58 88 71 47 57 62 56 52 50 47 46 45 44 42 41 40 42 43 43 43 42 41 40 41 41 40 49 111 179 181
121 61 88 88 146 192 218 202 186 125 107 115 84 63 100 126 137 147 169 125 87 61 50 59 64 57 52 50 47 46 45 43 40 39 36 35 36 35 37 36 33 29 28 30 30 30 40 67 195
92 55 61 98 208 222 217 192 163 130 84 70 108 85 69 41 165 158 122 110 92 61 51 61 64 58 53 51 47 44 43 41 39 37 34 31 30 29 27 28 27 22 18 18 19 13 20 357 270
60 83 89 174 228 240 237 216 164 134 115 82 112 115 93 356 66 106 112 107 99 71 52 59 61 57 53 50 48 45 43 40 37 34 32 30 28 25 22 20 20 16 10 5 2 360 360 348 307
62 77 122 210 230 244 244 222 140 125 122 115 118 122 157 10 101 120 114 103 96 85 60 54 60 58 53 49 48 45 43 40 37 33 31 28 26 22 19 17 14 12 5 2 355 349 346 340 324
114 121 180 199 204 233 208 133 144 142 144 168 146 128 177 240 146 125 109 97 82 75 67 55 55 56 53 49 46 44 41 40 37 34 30 28 25 22 18 15 11 10 8 360 351 341 335 330 320
124 121 165 199 194 223 182 122 132 145 156 142 142 150 189 199 144 113 95 83 76 62 59 54 51 52 49 47 44 42 40 39 36 32 29 26 23 19 17 13 10 8 5 2 354 342 333 330 323
93 95 205 211 196 211 163 128 93 91 119 110 162 177 179 137 129 115 99 76 77 67 47 54 51 45 44 46 43 40 37 34 31 28 26 23 19 15 12 9 7 5 2 0 358 350 340 333 323
105 178 222 210 191 176 158 148 152 115 113 139 102 86 115 132 142 146 151 161 161 154 97 56 60 46 43 41 37 35 33 29 25 21 18 20 18 14 10 6 5 1 358 356 353 350 344 333 320
154 196 210 212 181 152 149 157 155 145 206 206 189 170 149 152 160 167 176 179 183 184 172 145 97 57 50 38 32 29 25 23 19 15 12 15 16 11 9 7 1 358 356 355 348 350 348 338 326
154 217 193 198 145 144 165 163 200 200 220 211 185 165 162 172 182 184 186 190 185 183 198 204 153 74 45 41 28 24 19 15 9 1 2 15 17 9 5 4 355 356 353 348 347 345 336 332 322
179 206 196 190 133 180 173 218 236 241 236 177 149 163 179 187 194 198 193 187 185 191 204 213 203 180 94 48 7 18 2 356 346 350 350 360 13 338 346 347 351 345 342 340 332 329 325 321 313
186 170 254 271 243 231 218 255 241 249 207 178 174 186 194 195 196 192 190 194 199 200 206 209 212 202 178 182 250 289 317 327 340 342 333 334 342 338 322 318 328 331 329 326 320 305 301 302 299
99 69 324 246 210 214 170 274 234 236 171 185 194 199 206 210 203 199 199 197 200 202 203 208 211 198 201 229 252 285 297 313 332 327 323 319 313 315 312 303 306 316 319 319 321 312 307 305 308
73 77 266 264 185 178 166 260 260 194 173 202 211 214 217 221 215 210 203 200 199 196 201 214 208 204 228 238 248 276 296 306 309 310 315 314 309 303 311 294 296 312 322 318 300 303 302 302 304
61 207 232 271 197 166 191 249 274 163 186 217 222 220 217 223 228 219 207 201 199 197 199 210 213 210 228 244 251 274 289 290 296 299 302 303 306 303 301 283 293 313 310 298 295 304 289 294 297
206 208 228 241 249 179 233 257 271 264 227 235 234 226 217 219 226 216 206 206 200 197 199 205 215 220 224 257 308 312 300 288 287 286 287 291 298 297 294 288 291 302 296 295 286 285 286 277 287
161 174 225 252 267 220 249 266 272 264 240 238 234 225 220 224 230 217 208 203 191 193 199 206 212 228 206 259 276 290 289 296 298 290 288 289 292 294 289 286 288 285 283 283 280 275 287 285 290
157 193 244 286 345 252 288 279 271 256 237 227 221 218 218 219 219 215 209 195 194 200 207 215 217 223 226 226 230 231 256 276 279 285 293 289 291 292 292 278 277 276 278 283 279 272 272 282 276
213 204 214 247 336 5 324 299 276 270 240 229 218 216 215 210 213 212 207 207 207 212 213 218 224 229 232 228 252 316 327 313 300 296 293 289 290 287 282 277 271 270 263 270 270 260 256 272 266
224 211 184 196 323 297 16 292 285 279 289 245 224 215 214 213 208 207 206 210 215 219 217 219 224 229 234 217 214 237 270 277 272 279 282 285 282 281 280 276 270 268 264 264 266 263 250 255 263
173 105 120 135 162 300 265 228 280 287 263 248 232 223 221 218 209 208 209 213 217 213 212 219 226 238 240 229 222 235 260 269 280 285 285 287 283 279 277 275 270 269 266 264 264 264 254 247 249
130 83 63 56 79 270 223 194 272 237 221 238 234 225 222 215 214 216 214 207 216 216 215 217 228 252 248 242 239 236 254 272 283 288 289 290 289 285 276 273 268 267 265 263 261 260 254 250 249
125 111 53 349 319 247 182 206 250 249 235 229 240 244 228 210 206 210 211 213 221 223 228 229 233 259 258 254 254 250 253 260 266 275 280 285 288 286 279 278 272 271 268 264 261 260 257 251 250
180 158 168 195 223 268 205 233 255 263 274 262 253 242 213 208 213 216 215 214 217 222 226 230 240 259 260 259 265 264 260 263 268 269 272 273 275 275 276 275 273 272 271 269 264 261 259 256 251
150 186 156 128 119 280 260 276 296 271 282 274 253 209 225 229 228 226 223 220 221 225 229 227 239 260 264 264 270 275 270 270 274 277 275 275 275 279 277 276 275 273 270 267 264 261 260 259 257
146 143 126 146 169 239 279 270 252 269 251 261 253 245 253 257 248 236 226 228 230 233 242 238 239 253 265 267 270 284 281 277 278 282 280 279 280 279 280 279 275 273 271 268 263 261 261 258 260
140 148 146 142 165 175 246 268 229 227 237 237 245 251 251 251 248 238 234 240 246 250 245 251 258 264 274 276 279 285 288 287 287 284 281 281 281 280 278 277 274 273 272 270 267 264 264 261 262
178 174 157 168 207 192 200 267 280 243 259 248 254 262 265 258 256 247 240 243 247 254 262 265 267 269 274 281 287 287 290 293 293 289 285 283 282 282 279 280 275 274 273 270 269 270 270 265 264
Height
1479 1481 1483 1486 1491 1501 1499 1492 1488 1488 1487 1487 1487 1488 1490 1494 1498 1504 1502 1501 1503 1504 1505 1506 1507 1507 1508 1508 1508 1509 1509 1509 1510 1510 1510 1511 1511 1512 1512 1513 1513 1514 1514 1515 1515 1515 1515 1516 1516
1479 1482 1485 1486 1496 1504 1498 1489 1488 1486 1486 1487 1488 1489 1491 1494 1496 1498 1499 1501 1502 1504 1505 1506 1506 1507 1507 1507 1508 1508 1508 1508 1509 1509 1509 1510 1510 1510 1511 1511 1512 1512 1513 1513 1514 1514 1514 1515 1515
1480 1482 1485 1488 1496 1498 1490 1485 1485 1485 1485 1486 1488 1490 1492 1494 1496 1497 1499 1501 1502 1504 1504 1505 1506 1506 1506 1506 1507 1507 1507 1507 1507 1508 1508 1508 1509 1509 1509 1510 1510 1511 1511 1511 1512 1512 1513 1513 1513
1480 1483 1485 1492 1492 1489 1485 1483 1483 1484 1486 1486 1488 1491 1493 1495 1496 1498 1499 1501 1502 1503 1504 1504 1505 1505 1505 1505 1505 1505 1506 1506 1506 1506 1506 1507 1507 1507 1507 1508 1508 1508 1509 1509 1510 1510 1510 1511 1511
1480 1482 1489 1493 1490 1486 1483 1483 1483 1484 1485 1487 1488 1491 1493 1496 1496 1498 1499 1501 1502 1503 1504 1504 1504 1504 1504 1504 1504 1504 1504 1504 1504 1504 1504 1505 1505 1505 1505 1506 1506 1506 1506 1507 1507 1507 1508 1508 1509
1480 1482 1493 1495 1488 1484 1482 1482 1482 1484 1485 1487 1488 1491 1493 1495 1496 1498 1499 1501 1502 1502 1503 1503 1503 1503 1503 1503 1503 1503 1502 1502 1502 1502 1502 1502 1502 1503 1503 1503 1503 1503 1504 1504 1504 1505 1505 1505 1506
1480 1485 1489 1488 1488 1484 1482 1481 1482 1483 1485 1487 1488 1491 1493 1494 1496 1497 1499 1500 1501 1502 1502 1503 1503 1502 1502 1502 1502 1501 1501 1501 1500 1500 1500 1500 1500 1500 1500 1500 1501 1501 1501 1501 1501 1502 1502 1502 1503
1478 1484 1487 1488 1486 1483 1481 1480 1481 1482 1484 1486 1488 1489 1491 1493 1495 1497 1498 1499 1500 1501 1501 1502 1502 1501 1501 1501 1500 1500 1500 1499 1499 1499 1498 1498 1498 1498 1498 1498 1498 1498 1498 1498 1498 1499 1498 1499 1499
1478 1487 1488 1485 1484 1480 1479 1480 1481 1482 1483 1485 1486 1487 1489 1491 1493 1495 1497 1498 1499 1500 1500 1500 1500 1500 1500 1499 1499 1499 1498 1498 1497 1497 1497 1496 1496 1495 1495 1495 1495 1495 1495 1495 1495 1495 1495 1495 1496
1478 1485 1481 1478 1478 1478 1479 1479 1480 1482 1483 1484 1485 1486 1488 1490 1492 1494 1495 1496 1497 1498 1499 1499 1499 1499 1498 1498 1498 1497 1497 1496 1495 1495 1494 1494 1493 1493 1492 1492 1492 1492 1492 1492 1491 1491 1491 1491 1491
1476 1479 1477 1477 1477 1477 1478 1479 1480 1480 1482 1481 1482 1484 1486 1488 1491 1492 1494 1495 1496 1497 1497 1498 1497 1497 1497 1497 1496 1496 1495 1494 1494 1493 1492 1492 1491 1490 1490 1489 1489 1489 1488 1488 1488 1488 1487 1487 1487
1476 1476 1476 1476 1476 1477 1478 1478 1479 1478 1478 1479 1480 1482 1484 1486 1488 1490 1492 1493 1494 1495 1496 1496 1496 1496 1495 1495 1495 1494 1493 1493 1492 1491 1490 1489 1488 1487 1487 1486 1485 1485 1484 1484 1484 1483 1483 1483 1483
1476 1476 1476 1476 1476 1477 1477 1477 1477 1475 1476 1477 1479 1481 1482 1484 1486 1489 1490 1492 1493 1493 1494 1494 1494 1494 1494 1493 1493 1492 1491 1491 1490 1489 1488 1487 1486 1485 1484 1483 1482 1481 1481 1480 1480 1479 1479 1478 1478
1474 1475 1475 1475 1475 1476 1476 1476 1476 1471 1473 1475 1476 1478 1480 1482 1484 1486 1488 1489 1490 1491 1492 1492 1492 1492 1492 1491 1491 1490 1489 1488 1488 1487 1486 1484 1483 1482 1481 1479 1478 1478 1477 1476 1475 1475 1474 1473 1473
1474 1476 1476 1474 1474 1475 1476 1475 1471 1468 1471 1472 1474 1476 1478 1480 1482 1484 1485 1487 1488 1489 1490 1490 1490 1490 1490 1489 1489 1488 1487 1486 1485 1484 1483 1482 1480 1479 1477 1476 1475 1474 1473 1472 1471 1470 1469 1469 1468
1475 1478 1478 1474 1473 1474 1478 1474 1466 1466 1468 1469 1471 1473 1475 1477 1479 1481 1483 1485 1486 1487 1488 1488 1488 1488 1488 1487 1486 1486 1485 1484 1483 1481 1480 1479 1477 1476 1474 1472 1471 1470 1469 1468 1466 1465 1464 1463 1462
1478 1481 1478 1475 1473 1474 1475 1472 1465 1464 1465 1466 1468 1469 1471 1474 1476 1478 1480 1482 1483 1484 1485 1485 1486 1485 1485 1484 1484 1483 1482 1481 1480 1478 1477 1475 1474 1472 1471 1469 1467 1466 1465 1463 1462 1461 1460 1458 1457
1478 1480 1477 1476 1473 1474 1474 1470 1464 1463 1464 1464 1464 1466 1467 1469 1472 1475 1477 1479 1480 1481 1482 1482 1483 1483 1482 1481 1481 1480 1479 1477 1476 1475 1473 1472 1470 1469 1467 1465 1464 1462 1461 1459 1457 1456 1455 1454 1452
1473 1476 1475 1473 1473 1474 1473 1468 1461 1460 1461 1460 1460 1461 1463 1465 1469 1471 1474 1475 1477 1478 1478 1479 1479 1479 1478 1477 1476 1475 1474 1473 1472 1471 1470 1468 1467 1465 1463 1461 1460 1458 1456 1455 1453 1451 1450 1449 1448
1473 1474 1475 1474 1473 1473 1472 1467 1458 1455 1454 1453 1454 1456 1458 1461 1464 1467 1469 1471 1473 1474 1475 1475 1476 1476 1475 1474 1474 1472 1471 1469 1468 1467 1466 1464 1463 1461 1459 1457 1455 1454 1452 1450 1449 1447 1445 1444 1444
1473 1474 1474 1474 1474 1474 1474 1462 1454 1450 1449 1449 1449 1451 1453 1456 1459 1462 1465 1466 1468 1470 1471 1472 1472 1472 1472 1471 1470 1469 1467 1465 1464 1462 1461 1460 1458 1456 1455 1453 1451 1449 1447 1445 1444 1442 1440 1439 1439
1472 1471 1473 1474 1478 1480 1478 1473 1454 1450 1449 1447 1446 1447 1449 1452 1455 1458 1460 1462 1464 1466 1468 1468 1469 1469 1468 1467 1466 1465 1463 1461 1459 1458 1456 1454 1453 1451 1449 1447 1446 1444 1442 1440 1439 1437 1436 1435 1433
1469 1471 1474 1476 1480 1483 1481 1480 1457 1451 1447 1444 1443 1443 1445 1448 1451 1454 1456 1459 1461 1463 1464 1465 1465 1465 1465 1464 1463 1461 1459 1457 1455 1453 1451 1449 1447 1446 1444 1442 1440 1438 1436 1435 1433 1432 1430 1429 1428
1469 1474 1478 1483 1484 1481 1476 1478 1458 1451 1443 1440 1440 1440 1442 1445 1448 1451 1454 1456 1458 1459 1460 1461 1461 1461 1461 1460 1459 1457 1455 1453 1450 1448 1446 1443 1441 1439 1438 1436 1434 1432 1430 1429 1427 1425 1424 1423 1422
1467 1475 1483 1481 1487 1478 1475 1474 1456 1441 1439 1438 1438 1439 1440 1443 1445 1448 1450 1452 1454 1455 1456 1457 1457 1457 1456 1456 1455 1453 1451 1449 1446 1444 1441 1438 1435 1433 1432 1430 1428 1426 1424 1422 1420 1419 1417 1416 1415
1466 1467 1476 1476 1476 1473 1475 1470 1449 1438 1437 1436 1436 1437 1439 1441 1443 1444 1446 1448 1450 1452 1453 1453 1453 1453 1452 1451 1450 1449 1447 1444 1442 1439 1436 1433 1430 1428 1426 1424 1422 1420 1418 1416 1414 1412 1410 1409 1407
1465 1468 1469 1480 1485 1478 1468 1463 1448 1435 1435 1435 1435 1436 1437 1438 1440 1442 1444 1445 1447 1448 1449 1449 1449 1449 1448 1447 1446 1444 1442 1440 1437 1434 1431 1428 1425 1423 1420 1418 1415 1413 1411 1409 1407 1405 1403 1402 1400
1459 1464 1473 1476 1475 1467 1462 1461 1449 1436 1434 1435 1435 1435 1436 1437 1438 1440 1441 1443 1444 1445 1446 1446 1446 1445 1444 1443 1441 1440 1438 1435 1432 1429 1426 1423 1420 1417 1414 1412 1409 1406 1404 1402 1400 1398 1396 1394 1393
1462 1465 1466 1472 1473 1471 1465 1452 1437 1435 1433 1434 1434 1434 1435 1436 1437 1438 1439 1441 1442 1443 1443 1443 1442 1441 1440 1439 1437 1435 1433 1430 1427 1424 1420 1417 1414 1411 1408 1405 1402 1400 1397 1395 1393 1390 1389 1387 1385
1456 1458 1463 1464 1472 1477 1473 1454 1432 1433 1432 1433 1433 1433 1434 1435 1436 1437 1438 1438 1439 1439 1439 1439 1438 1437 1436 1434 1433 1430 1428 1424 1421 1418 1415 1411 1408 1405 1402 1399 1396 1393 1390 1388 1385 1382 1380 1379 1377